This is the latest recevied weather packets stored in our database for station/object F1AGU-13. If no packets are shown the sender has not sent any weather packets the latest 10 day(s).
| Time | Temp. | Humidity | Pressure | Rain* | Wind** | Luminosity | Snow |
|---|---|---|---|---|---|---|---|
| 1778076316 | 9.44° C | 83% | 1010.7 hPa | 0 mm | - | - | - |
| 1778075716 | 10.56° C | 84% | 1010.9 hPa | 0 mm | - | - | - |
| 1778075116 | 10.56° C | 77% | 1011 hPa | 0 mm | - | - | - |
| 1778074516 | 10° C | 76% | 1010.8 hPa | 0 mm | - | - | - |
| 1778073916 | 10° C | 74% | 1010.9 hPa | 0 mm | - | - | - |
| 1778073316 | 10.56° C | 77% | 1011.2 hPa | 0 mm | - | - | - |
| 1778072716 | 10.56° C | 77% | 1010.9 hPa | 0 mm | - | - | - |
| 1778072117 | 10.56° C | 82% | 1010.9 hPa | 0 mm | - | - | - |
| 1778071516 | 10° C | 83% | 1011 hPa | 0.25 mm | - | - | - |
| 1778070916 | 9.44° C | 88% | 1010.8 hPa | 0.25 mm | - | - | - |
| 1778070317 | 8.89° C | 86% | 1010.8 hPa | 0.51 mm | - | - | - |
| 1778069716 | 8.89° C | 85% | 1010.6 hPa | 0.51 mm | - | - | - |
| 1778069116 | 7.78° C | 91% | 1010.7 hPa | 1.27 mm | - | - | - |
| 1778068516 | 7.22° C | 91% | 1010.5 hPa | 1.78 mm | - | - | - |
| 1778067917 | 7.22° C | 90% | 1010.4 hPa | 1.78 mm | - | - | - |
| 1778067316 | 7.22° C | 92% | 1010.5 hPa | 2.03 mm | - | - | - |
| 1778066716 | 6.67° C | 92% | 1010.6 hPa | 1.78 mm | - | - | - |
| 1778066116 | 6.67° C | 92% | 1010.5 hPa | 1.78 mm | - | - | - |
| 1778065516 | 6.67° C | 93% | 1010.3 hPa | 1.52 mm | - | - | - |
| 1778064916 | 7.22° C | 92% | 1010.3 hPa | 1.02 mm | - | - | - |
| 1778064316 | 7.22° C | 91% | 1010.2 hPa | 1.52 mm | - | - | - |
| 1778063716 | 7.78° C | 91% | 1010.1 hPa | 1.78 mm | - | - | - |
| 1778063116 | 7.78° C | 91% | 1010 hPa | 2.29 mm | - | - | - |
| 1778062516 | 8.33° C | 92% | 1010.1 hPa | 2.03 mm | - | - | - |
| 1778061916 | 7.78° C | 91% | 1009.7 hPa | 2.03 mm | - | - | - |
* Rain latest hour (hover to see other rain measurements)
** Current wind speed in m/s (hover to see current wind gust speed)